This demonstration page uses our WeatherBlox Daily Observations layout. Learn more.

41.55636, -103.73856

Hourly Observations for August 31, 2016

Temp ( °F °C ) Dew Point ( °F °C ) Humidity (%) Winds ( mph kmh ) Pressure ( in mb ) Visibility ( mi km ) Precip ( " mm )
12:53 am 00:53 undefined 60 15.6 56 13.3 86 86 E 7 11 30.15 1021 N/A 0 0
1:53 am 01:53 Clear 58 14.4 55 12.8 90 90 ENE 6 9 30.14 1021 10 16.0934 0 0
2:53 am 02:53 Clear 58 14.4 56 13.3 93 93 E 6 9 30.13 1020 10 16.0934 0 0
3:53 am 03:53 Clear 57 13.9 55 12.8 93 93 E 5 7 30.13 1020 9 14.48406 0 0
4:19 am 04:19 Partly Cloudy 57 14 55 13 94 94 E 6 9 30.12 1020 8 12.87472 0 0
4:28 am 04:28 Mostly Cloudy with Mist and Fog 57 14 55 13 94 94 ESE 8 13 30.12 1020 5 8.0467 0 0
4:31 am 04:31 Mostly Cloudy with Mist and Fog 58 14.4 57 13.9 97 97 ESE 10 17 30.12 1020 1.5 2.41401 0 0
4:38 am 04:38 Mostly Cloudy with Fog 57 14 57 14 100 100 ESE 8 13 30.12 1020 0.25 0.402335 0 0
4:53 am 04:53 Mostly Cloudy with Fog 58 14.4 57 13.9 97 97 ESE 8 13 30.12 1020 0.25 0.402335 0 0
5:26 am 05:26 Mostly Cloudy with Mist and Fog 57 13.9 56 13.3 96 96 SE 6 9 30.12 1020 0.75 1.207005 0 0
5:53 am 05:53 Mostly Cloudy with Mist and Fog 56 13.3 55 12.8 97 97 ESE 7 11 30.14 1021 0.75 1.207005 0 0
5:59 am 05:59 Cloudy with Mist and Fog 56 13.3 55 12.8 97 97 SE 6 9 30.18 1022 2 3.21868 0 0
6:06 am 06:06 Mostly Cloudy with Mist and Fog 55 13 55 13 100 100 SE 7 11 30.18 1022 5 8.0467 0 0
6:23 am 06:23 Mostly Cloudy with Mist and Fog 57 13.9 56 13.3 96 96 SSE 5 7 30.18 1022 6 9.65604 0 0
6:36 am 06:36 Cloudy with Mist and Fog 58 14.4 56 13.3 93 93 SSE 5 7 30.15 1021 5 8.0467 0 0
6:53 am 06:53 Cloudy with Mist and Fog 59 15 57 13.9 93 93 Calm 30.15 1021 6 9.65604 0 0
7:09 am 07:09 Mostly Cloudy with Mist and Fog 59 15 57 13.9 93 93 Calm 30.15 1021 6 9.65604 0 0
7:33 am 07:33 Cloudy 61 16.1 59 15 93 93 E 3 6 30.15 1021 7 11.26538 0 0
7:53 am 07:53 Cloudy with Mist and Fog 62 16.7 60 15.6 93 93 Calm 30.16 1021 6 9.65604 0 0
8:21 am 08:21 Cloudy 63 17.2 60 15.6 90 90 SE 6 9 30.12 1020 7 11.26538 0 0
8:37 am 08:37 Cloudy 63 17.2 60 15.6 90 90 SSE 6 9 30.12 1020 7 11.26538 0 0
8:45 am 08:45 Cloudy 63 17.2 60 15.6 90 90 SSE 6 9 30.12 1020 7 11.26538 0 0
8:53 am 08:53 Cloudy 64 17.8 60 15.6 87 87 SE 5 7 30.17 1022 7 11.26538 0 0
9:27 am 09:27 Cloudy 65 18.3 61 16.1 87 87 ESE 7 11 30.09 1019 7 11.26538 0 0
9:53 am 09:53 Cloudy 67 19.4 61 16.1 81 81 ESE 7 11 30.17 1022 7 11.26538 0 0
10:11 am 10:11 Cloudy 68 20 61 16.1 78 78 SE 9 15 30.09 1019 10 16.0934 0 0
10:53 am 10:53 Mostly Cloudy 72 22.2 60 15.6 66 66 ESE 12 19 30.16 1021 10 16.0934 0 0
11:08 am 11:08 Mostly Cloudy 72 22 61 16 69 69 ESE 8 13 30.06 1018 10 16.0934 0 0
11:48 am 11:48 Partly Cloudy 73 23 61 16 65 65 ESE 10 17 30.03 1017 10 16.0934 0 0
11:53 am 11:53 Partly Cloudy 75 23.9 60 15.6 60 60 SE 8 13 30.14 1021 10 16.0934 0 0
12:53 pm 12:53 Partly Cloudy 77 25 59 15 54 54 E 12 19 30.12 1020 10 16.0934 0 0
1:53 pm 13:53 Mostly Sunny 79 26.1 59 15 50 50 ESE 12 19 30.11 1020 10 16.0934 0 0
2:53 pm 14:53 Mostly Sunny 81 27.2 58 14.4 45 45 ESE 17 28 30.08 1019 10 16.0934 0 0
3:53 pm 15:53 Sunny 81 27.2 58 14.4 45 45 ESE 17 28 30.07 1018 10 16.0934 0 0
4:53 pm 16:53 Mostly Sunny 81 27.2 57 13.9 44 44 ESE 15 24 30.06 1018 10 16.0934 0 0
5:53 pm 17:53 Sunny 78 25.6 58 14.4 50 50 ESE 16 26 30.07 1018 10 16.0934 0 0
6:53 pm 18:53 Sunny 75 23.9 58 14.4 55 55 ESE 14 22 30.08 1019 10 16.0934 0 0
7:53 pm 19:53 Clear 71 21.7 59 15 66 66 SE 13 20 30.08 1019 10 16.0934 0 0
8:53 pm 20:53 Clear 67 19.4 59 15 76 76 ESE 8 13 30.11 1020 10 16.0934 0 0
9:53 pm 21:53 Clear 64 17.8 59 15 84 84 ESE 8 13 30.13 1020 10 16.0934 0 0
10:53 pm 22:53 Clear 63 17.2 58 14.4 84 84 ESE 10 17 30.13 1020 10 16.0934 0 0
11:53 pm 23:53 Clear 62 16.7 59 15 90 90 ESE 9 15 30.12 1020 10 16.0934 0 0

Powered by AerisWeather